Вернуться в каталог

SUPERVIEW NEO-1 02

АктивенНаукаSSO
NORAD 52322·PAYLOAD·🇨🇳 China

Запущен Apr 29, 2022 с Jiuquan Satellite Launch Center

Loading…

Ближайшие Пролёты (ближайшие 24 часа)

TLE

СвежийSource: Space-Track

Эпоха: Sep 14, 2026, 15:08 UTC

1 52322U 22043C   26257.63119138  .00003312  00000-0  17031-3 0  9993
2 52322  97.3325 327.5547 0002738  54.4962 305.6527 15.17126325243132

Отслеживайте SUPERVIEW NEO-1 02 в реальном времени с AllMySat

Download on the App Store